Content
SEND FEEDBACK

Daily
Averages
Monthly
Summary
United States of America

ASATDAS, GUAM


Home > North America > United States > Guam
Elevation: 612 feet     Latitude: 13 35N     Longitude: 144 56E

WEATHER
 
SELECT A DAY
Number of Records: 214,954;   Date Range: 1/1/95 - 11/27/14
 
SHARE

PRINT THIS DATA

[ ← Previous Day ]
WEATHER ALMANAC - JANUARY 27, 2013
[ Next Day → ]
[ °C ]   °F
Weather ElementAverageHighLow
Temperature78.5 °F84.9 °F (1:54 pm)73 °F (3:54 am)
Dewpoint65.2 °F66.9 °F (1:54 am)63 °F (1:54 pm)
Humidity64.2 %79 % (3:54 am)48 % (1:54 pm)
Barometer29.92 in29.98 in (8:54 am)29.87 in (2:54 pm)
Wind Speed12.6 mph21.9 mph (1:54 pm)
Wind Gust24.2 mph (4:54 pm)
Weather ElementAverage
Visibility10 mi
Wind DirectionENE (53.9 °)

Weather ElementTotal
Precipitation---
Cooling Degree Days14 (Base 65)
Growing Degree Days29 (Base 50)
Averaged from 23 records on January 27, 2013
WEATHER CONDITIONS BREAKOUT
WIND DIRECTION BREAKOUT
WEATHER BY HOUR - JANUARY 27, 2013
[ °C ]   °F
Local TimeTemperatureDewpointHumidityBarometerVisibilityWind DirectionWind SpeedGust SpeedPrecipitationEventsConditions
1:54 AM75.0 °F66.9 °F76 %29.92 in10.0 miENE (60°)6.9 mphMostly Cloudy
2:54 AM75.0 °F66.0 °F73 %29.91 in10.0 miENE (60°)8.1 mphClear
3:54 AM73.0 °F66.0 °F79 %29.91 in10.0 miNE (50°)6.9 mphClear
4:54 AM75.0 °F66.0 °F73 %29.92 in10.0 miENE (60°)5.8 mphMostly Cloudy
5:54 AM73.9 °F66.0 °F76 %29.93 in10.0 miENE (60°)8.1 mphScattered Clouds
6:54 AM75.0 °F64.9 °F71 %29.94 in10.0 miNE (50°)9.2 mphMostly Cloudy
7:54 AM77.0 °F64.0 °F64 %29.97 in10.0 miNE (50°)9.2 mphClear
8:54 AM80.1 °F64.9 °F60 %29.98 in10.0 miNE (40°)16.1 mph21.9 mphPartly Cloudy
9:54 AM81.0 °F64.0 °F56 %29.98 in10.0 miNE (50°)15.0 mph23.0 mphScattered Clouds
10:54 AM82.9 °F64.0 °F53 %29.95 in10.0 miNE (40°)18.4 mph23.0 mphMostly Cloudy
11:54 AM81.0 °F64.0 °F56 %29.94 in10.0 miNE (40°)18.4 mphMostly Cloudy
12:54 PM82.9 °F64.9 °F54 %29.91 in10.0 miENE (60°)16.1 mph23.0 mphMostly Cloudy
1:54 PM84.9 °F63.0 °F48 %29.88 in10.0 miENE (60°)21.9 mphScattered Clouds
2:54 PM84.0 °F64.0 °F51 %29.87 in10.0 miNE (40°)19.6 mphScattered Clouds
3:54 PM82.0 °F66.0 °F58 %29.87 in10.0 miNE (50°)17.3 mph23.0 mphScattered Clouds
4:54 PM81.0 °F66.0 °F60 %29.88 in10.0 miNE (50°)17.3 mph24.2 mphPartly Cloudy
5:54 PM79.0 °F66.0 °F64 %29.89 in10.0 miENE (60°)15.0 mph23.0 mphPartly Cloudy
6:54 PM78.1 °F66.0 °F66 %29.91 in10.0 miENE (60°)10.4 mphPartly Cloudy
7:54 PM77.0 °F66.0 °F69 %29.92 in10.0 miENE (60°)10.4 mphPartly Cloudy
8:54 PM77.0 °F64.9 °F66 %29.93 in10.0 miENE (60°)10.4 mphPartly Cloudy
9:54 PM77.0 °F64.9 °F66 %29.94 in10.0 miENE (60°)9.2 mphPartly Cloudy
10:54 PM77.0 °F66.0 °F69 %29.93 in10.0 miENE (60°)10.4 mphPartly Cloudy
11:54 PM77.0 °F66.0 °F69 %29.93 in10.0 miENE (60°)9.2 mphPartly Cloudy
Hourly data recorded from PGUM, located miles away from Asatdas, Guam







STORIES FROM OUR PARTNERS